OPS 4682 DEB, 38416

Orbit data source: Space-Track

OPS 4682 DEB, 38416 is space debris in LEO originally from a launch on Sat, 03 Apr 1965 UTC launched from the Air Force Western Test Range (AFWTR). Debris objects in space refer to the collection of defunct objects orbiting the Earth. Examples of debris include non-operational satellites, rocket bodies, and fragments generated from explosions, collisions, or faulty payload assembly.

Loading next visibility...
Identifier
38416, 1965-027DV
Orbit
LEO
Country
Flag of USUS
Related business
Manufacturer
Unknown
Mission
Spacecraft
Bus & Motor
Unknown
Mass
Unknown
Launch date (UTC)
1965-04-03 (61 years ago)
Launch vehicle
Unknown
Launch site
Air Force Western Test Range (AFWTR)
Object type
Payload
Rocket body
Debris
Shape & HBR
Unknown shape, 0.1 m
Radar Cross Section
Small (<0.1 m²)

Expand to show TLE details & history
Last TLE update: 4 days ago

TLE from 4 days ago
0 OPS 4682 DEB
1 38416U 65027DV  25337.32685247  .00000236  00000-0  80603-3 0  9990
2 38416  90.2414   5.2747 0031656 295.8838  63.9020 12.95794143609351
Epoch: 2025-12-03T07:50Z
TLE epoch observation values (Epoch: 2025-12-03T07:50:40.053Z)
Latitude
0.00006°
Longitude
175.20857°
Altitude
1,270.885 km
Speed
7.225 km/s
True Right ascension
00h 21m 05s
True Declination
0° 00' 00"
Sunlit
Object was in daylight at epoch
Visualization orbit readout
Latitude
Unknown
Longitude
Unknown
Altitude
Unknown
Speed
Unknown
Apparent Right ascension
Unknown
Apparent Declination
Unknown
Sunlit
N/A
Visualization observer readout
Local Sidereal Time
15:16:56
Azimuth
Unknown
Elevation
Unknown
Doppler factor
Unknown
Orbital elements
Apogee altitude
1,299.972 km
Perigee altitude
1,251.514 km
Semi-major axis
7,653.88 km
Eccentricity
0.00317
Inclination
90.2414°
RAAN
5.2747°
Arg. of periapsis
295.8838°
True anomaly
64.22833°
Mean anomaly
63.902°
Eccentric anomaly
64.06511°
Mean motion
3.24131 °/min
Orbital period
111.07 mins
BSTAR
0.00080603
Loading maneuver chart data...
Computing Atmospheric mass density...
Loading historical data...
Loading historical data...
Loading historical data...
Loading historical data...
Loading historical data...
Loading historical data...
Loading historical data...

Documentation

Showing up to 5 results
|